User: anonymous   Login
Location: Unspecified
(0.0000°N, 0.0000°E)
Time: 17:51:26
(UTC+00:00)
Language:

Transit 4A - Orbit

View from above orbital plane
View from above orbital plane
View from above satellite
View from above satellite

Ground track
Ground track

The orbit data is extracted from the following two-line orbital elements,

1   116U 61015A   20017.84618734 -.00000058  00000-0  14299-4 0  9995
2   116  66.8077 218.8276 0069759 117.3926 243.4273 13.91764451971219
Epoch (UTC): 17 January 2020 20:18:30
Eccentricity: 0.0069759
inclination: 66.8077°
perigee height: 871 km
apogee height: 973 km
right ascension of ascending node: 218.8276°
argument of perigee: 117.3926°
revolutions per day: 13.91764451
mean anomaly at epoch: 243.4273°
orbit number at epoch: 97121

The dashed part of the orbit path shows where the satellite is in the earth's shadow,  

DLR